Location: Newark
(44.9486°N, 4.8961°E)
Time: 04:37:08
(UTC+00:00)

OTV 5 (USA 277) - Visible Passes

Search period start: 14 October 2019 00:00
Search period end: 24 October 2019 00:00
Orbit: 310 x 324 km, 54.5° (Epoch: 08 October)

Date Brightness Start Highest point End Pass type
(mag) Time Alt. Az. Time Alt. Az. Time Alt. Az.
14 Oct ? 05:10:42 10° NNW 05:12:54 21° NNE 05:15:05 10° ENE visible
15 Oct ? 03:53:05 13° NNE 03:53:05 13° NNE 03:54:08 10° NE visible
15 Oct ? 05:25:02 10° NW 05:27:38 37° NNE 05:30:13 10° E visible
16 Oct ? 04:07:19 17° N 04:07:35 17° NNE 04:09:32 10° ENE visible
17 Oct ? 04:21:37 23° N 04:22:24 27° NNE 04:24:48 10° E visible
18 Oct ? 04:36:01 30° NNW 04:37:05 55° NNE 04:39:46 10° ESE visible
19 Oct ? 04:50:31 29° WNW 04:51:38 54° SW 04:54:18 10° SE visible
20 Oct ? 03:34:13 12° E 03:34:13 12° E 03:34:27 10° E visible
20 Oct ? 05:05:08 18° WSW 05:06:02 21° SW 05:08:10 10° S visible
21 Oct ? 03:48:58 12° SE 03:48:58 12° SE 03:49:12 10° SE visible
